Weather History for KDEN - December, 2011

Change the Weather History Date:

Wednesday, December 14, 2011

  Actual Average Record
Temperature  
Mean Temperature 35 °F 30 °F  
Max Temperature 47 °F 42 °F 70 °F (2010)
Min Temperature 23 °F 17 °F -18 °F (2008)
Degree Days  
Heating Degree Days 30 36  
Month to date heating degree days 610 483  
Since 1 July heating degree days 1862 1865  
Cooling Degree Days 0 0  
Month to date cooling degree days 0 0  
Year to date cooling degree days 964 769  
Moisture  
Dew Point 20 °F    
Average Humidity 55    
Maximum Humidity 81    
Minimum Humidity 28    
Precipitation  
Precipitation 0.00 in 0.01 in 0.34 in (1891)
Month to date precipitation 0.29 0.17  
Year to date precipitation 16.82 14.12  
Snow  
Snow 0.00 in - - ()
Month to date snowfall 9.2  
Since 1 July snowfall 22.2  
Snow Depth 1.00 in    
Sea Level Pressure  
Sea Level Pressure 29.91 in    
Wind  
Wind Speed 8 mph (SW)    
Max Wind Speed 15 mph    
Max Gust Speed 18 mph    
Visibility 9 miles    
Events      
T = Trace of Precipitation, MM = Missing Value Source: NWS Daily Summary

Daily Weather History Graph

Daily Weather History Graph

Search for Another Location

Airport or City:

Trip Planner

Search our weather history database for the weather conditions in past years. The results will help you decide how hot, cold, wet, or windy it might be!

Date:

Astronomy

Dec. 14, 2011 Rise Set
Actual Time 7:12 AM MST 4:34 PM MST
Civil Twilight 6:41 AM MST 5:04 PM MST
Nautical Twilight 6:07 AM MST 5:38 PM MST
Astronomical Twilight 5:34 AM MST 6:11 PM MST
Moon 8:57 PM MST (12/14) 9:58 AM MST (12/14)
Length of Visible Light 10h 23m
Length of Day
9h 22m
Waning Gibbous, 83% of the Moon is Illuminated
Dec 14
Waning Gibbous
Dec 17
Last Quarter
Dec 24
New
Dec 31
First Quarter
Jan 9
Full

Hourly Weather History & Observations

Time (MST) Temp. Windchill Dew Point Humidity Pressure Visibility Wind Dir Wind Speed Gust Speed Precip Events Conditions
12:53 AM 25.0 °F 16.3 °F 19.0 °F 78% 29.83 in 6.0 mi WSW 8.1 mph - N/A   Scattered Clouds
1:53 AM 24.1 °F 17.0 °F 18.0 °F 77% 29.82 in 6.0 mi WSW 5.8 mph - N/A   Scattered Clouds
2:53 AM 24.1 °F 18.2 °F 18.0 °F 77% 29.81 in 7.0 mi WSW 4.6 mph - N/A   Mostly Cloudy
3:53 AM 24.1 °F 15.2 °F 17.1 °F 75% 29.83 in 8.0 mi West 8.1 mph - N/A   Mostly Cloudy
4:53 AM 24.1 °F 16.0 °F 17.1 °F 75% 29.84 in 9.0 mi WSW 6.9 mph - N/A   Mostly Cloudy
5:53 AM 27.0 °F 19.5 °F 19.0 °F 72% 29.84 in 10.0 mi WSW 6.9 mph - N/A   Overcast
6:53 AM 28.9 °F 20.4 °F 19.0 °F 67% 29.83 in 10.0 mi SW 9.2 mph - N/A   Mostly Cloudy
7:53 AM 30.9 °F 21.7 °F 21.0 °F 67% 29.85 in 10.0 mi SW 11.5 mph - N/A   Mostly Cloudy
8:53 AM 36.0 °F 28.0 °F 21.9 °F 57% 29.85 in 10.0 mi SSW 11.5 mph - N/A   Mostly Cloudy
9:53 AM 37.9 °F 31.5 °F 24.1 °F 57% 29.86 in 10.0 mi SSW 9.2 mph - N/A   Mostly Cloudy
10:53 AM 41.0 °F 36.4 °F 25.0 °F 53% 29.83 in 10.0 mi South 6.9 mph - N/A   Mostly Cloudy
11:53 AM 42.1 °F 37.1 °F 26.1 °F 53% 29.82 in 10.0 mi South 8.1 mph - N/A   Mostly Cloudy
12:53 PM 45.0 °F 40.6 °F 18.0 °F 34% 29.80 in 10.0 mi West 8.1 mph - N/A   Scattered Clouds
1:53 PM 45.0 °F 40.6 °F 17.1 °F 33% 29.81 in 10.0 mi NNW 8.1 mph - N/A   Scattered Clouds
2:53 PM 46.0 °F 43.1 °F 15.1 °F 29% 29.84 in 10.0 mi WNW 5.8 mph - N/A   Scattered Clouds
3:53 PM 39.9 °F 34.5 °F 23.0 °F 51% 29.90 in 10.0 mi North 8.1 mph - N/A   Scattered Clouds
4:53 PM 34.0 °F 28.0 °F 25.0 °F 70% 29.97 in 10.0 mi ENE 6.9 mph - N/A   Mostly Cloudy
5:53 PM 30.0 °F 24.1 °F 19.0 °F 64% 30.01 in 10.0 mi East 5.8 mph - N/A   Mostly Cloudy
6:53 PM 27.0 °F 19.5 °F 18.0 °F 69% 30.05 in 10.0 mi SE 6.9 mph - N/A   Mostly Cloudy
7:53 PM 27.0 °F 17.3 °F 17.1 °F 66% 30.07 in 10.0 mi South 10.4 mph - N/A   Mostly Cloudy
8:53 PM 28.0 °F 20.8 °F 19.0 °F 69% 30.09 in 10.0 mi South 6.9 mph - N/A   Mostly Cloudy
9:53 PM 30.0 °F 21.7 °F 19.9 °F 66% 30.09 in 10.0 mi South 9.2 mph - N/A   Overcast
10:53 PM 25.0 °F 14.8 °F 18.0 °F 75% 30.12 in 10.0 mi South 10.4 mph - N/A   Overcast
11:53 PM 26.1 °F 17.6 °F 16.0 °F 66% 30.12 in 10.0 mi SSE 8.1 mph - N/A   Overcast